Regional Weather Roundup
Issued by NWS

Home | Current Version | Previous Version | Graphics & Text | Print | Product List | Glossary On
Versions: 1 2 3 4 5 6 7 8 9 10 11 12 13 14 15 16 17 18 19 20 21 22 23 24 25 26 27 28 29 30 31 32 33 34 35 36 37 38 39 40 41 42 43 44 45 46 47 48 49 50
000
ASUS45 KCYS 311810
RWRWY

WYOMING REGIONAL WEATHER ROUNDUP
NATIONAL WEATHER SERVICE CHEYENNE WY
1100 AM MST SAT JAN 31 2015

NOTE:  "FAIR" INDICATES FEW OR NO CLOUDS BELOW 12,000 FEET
WITH NO SIGNIFICANT WEATHER AND/OR OBSTRUCTIONS TO VISIBILITY.

WYZ001-311900-
YELLOWSTONE NATIONAL PARK

CITY           SKY/WX    TMP DP  RH WIND       PRES   REMARKS
LK YELLOWSTONE   N/A      8   3  80 E3        30.04F
6HR MIN TEMP: -14; 6HR MAX TEMP:   9;

W YELLOWSTONE  NOT AVBL

$$
WYZ002>013-054>058-071-098>099-311900-
NORTHERN WYOMING

CITY           SKY/WX    TMP DP  RH WIND       PRES   REMARKS
JACKSON        SUNNY     12   9  85 N5        30.06R WCI   4
CODY           FAIR      37  16  41 CALM      29.93S
GREYBULL       FOG       28  26  92 CALM      29.96S VSB 1/4
6HR MIN TEMP:  24; 6HR MAX TEMP:  28;

WORLAND        HAZE      27  22  81 SW5       29.97S VSB<1/4 WCI  22
6HR MIN TEMP:  18; 6HR MAX TEMP:  27;

SHERIDAN       FAIR      42  23  46 NW17G24   29.94R
6HR MIN TEMP:  21; 6HR MAX TEMP:  42;

BUFFALO        FAIR      39  18  42 N30G39    29.88F WCI  27
6HR MIN TEMP:  23; 6HR MAX TEMP:  40;

GILLETTE       FAIR      39  25  57 S13       29.89S WCI  31
6HR MIN TEMP:  25; 6HR MAX TEMP:  39;

HULETT         FAIR     N/A N/A N/A E8        29.95R
NEWCASTLE      FAIR      32  25  74 S3        29.94F

$$
WYZ014>020-022>026-101>103-311900-
CENTRAL WYOMING

CITY           SKY/WX    TMP DP  RH WIND       PRES   REMARKS
BIG PINEY      FAIR      30  18  60 SE3       29.96R
6HR MIN TEMP:  16; 6HR MAX TEMP:  30;

PINEDALE       FAIR      28  10  47 NW10      29.95S WCI  19
DUBOIS         FAIR      39   0  19 NW20G28   29.88F WCI  30
LANDER         FAIR      34  22  61 CALM      29.89S
6HR MIN TEMP:  22; 6HR MAX TEMP:  34;

RIVERTON       FAIR      29  26  89 NE5       29.91R WCI  24
6HR MIN TEMP:  24; 6HR MAX TEMP:  30;

CASPER         FAIR      37  21  52 SW12      29.89R WCI  29
6HR MIN TEMP:  24; 6HR MAX TEMP:  39;

DOUGLAS        FAIR      37  27  67 S7        29.88F WCI  32
6HR MIN TEMP:  26; 6HR MAX TEMP:  37;


$$
WYZ021-027>030-104>119-311900-
SOUTHERN WYOMING

CITY           SKY/WX    TMP DP  RH WIND       PRES   REMARKS
EVANSTON       PTSUNNY   33  28  81 W9        30.01R WCI  25
6HR MIN TEMP:  26; 6HR MAX TEMP:  32;

KEMMERER       FAIR      32  28  86 W17       29.98S WCI  21
FORT BRIDGER   FAIR      35  32  88 W12       30.01S WCI  27
ROCK SPRINGS   FAIR      30  26  85 W16       29.95F WCI  19
6HR MIN TEMP:  24; 6HR MAX TEMP:  30;

DIXON          CLOUDY    33  29  86 W6        29.95F WCI  27
RAWLINS        FAIR      37  24  59 SW8       29.91S WCI  31
6HR MIN TEMP:  29; 6HR MAX TEMP:  37;

SARATOGA       CLOUDY    32  27  80 MISG      29.91F
LARAMIE        CLOUDY    30  25  81 N7        29.87R WCI  23
6HR MIN TEMP:  26; 6HR MAX TEMP:  30; 6HR PCP: TRACE;

CHEYENNE       LGT SNOW  31  26  82 N7        29.88R WCI  24
6HR MIN TEMP:  30; 6HR MAX TEMP:  32; 6HR PCP: TRACE;

TORRINGTON     CLOUDY    36  25  64 S5        29.91F WCI  32
6HR MIN TEMP:  31; 6HR MAX TEMP:  36;

PINE BLUFFS    MIX PCPN  32  30  93 NW8       29.89F WCI  25

$$



USA.gov is the U.S. government's official web portal to all federal, state and local government web resources and services.